sat.trackr.live / text

‹ back to catalog

STARLINK-30463

NORAD 57909 · 2023-146U

PAYLOAD ACTIVE UNKNOWN

§ Identity

Operator
Country
US
Launch date
2023-09-20
Launch site
AFETR
Launch vehicle
Mass (kg)
RCS (m²)

Purposes: comms

External: N2YO · Heavens-Above · Gunter

§ Orbital elements

Epoch: 2026-05-24T15:03:55.184256Z

Period
94.27 min
Inclination
42.9989°
Eccentricity
0.0001404
Mean motion
15.27586136 rev/d
Perigee alt
482.1 km
Apogee alt
484.0 km
Semi-major
6,861.2 km
B*
3.8090e-5
RAAN
245.8815°
Arg perigee
271.1676°
Mean anomaly
88.9015°
Rev number
14,760

§ Raw data

STARLINK-304631 57909U 23146U   26144.62772204  .00000786  00000+0  38090-4 0  99972 57909  42.9989 245.8815 0001404 271.1676  88.9015 15.27586136147608

JSON: /api/v1/satellites/57909 · /tle

For live sub-satellite position, see the globe view (requires WebGL).

§ Visibility from observer

Set your observer location to see the next 7 days of passes ≥ 10°. The values pass through the URL so the page stays shareable.

No JS? Fill the form by hand. The geolocation button needs JavaScript.